When you browse on this site, cookies collect data to enhance your experience and personalize the content and advertising you see.
Visit our Privacy Policy to learn more. By continuing to use the site, you agree to this use of cookies and data.
  • en Suisse
  • Liste des pays
  • À 7 jours
  • Température de l'eau
  • Carte météo
  • Widgets météo
  • user-avatar
    Se connecter

    Météo par heure à Priselskaya

    Ce jour, 24 Août, Samedi

    Heure Température Précipitation Vent Pression Humidité
    00:00 +13°C° 0 mm 1 m/s 750 mmHg 89%
    01:00 +13°C° 0 mm 1 m/s 750 mmHg 89%
    02:00 +12°C° 0 mm 1 m/s 750 mmHg 90%
    03:00 +12°C° 0 mm 1 m/s 750 mmHg 90%
    04:00 +12°C° 0 mm 1 m/s 750 mmHg 91%
    05:00 +12°C° 0 mm 1 m/s 750 mmHg 92%
    06:00 +14°C° 0 mm 2 m/s 750 mmHg 86%
    07:00 +15°C° 0 mm 2 m/s 749 mmHg 80%
    08:00 +17°C° 0 mm 2 m/s 749 mmHg 75%
    09:00 +19°C° 0 mm 2 m/s 749 mmHg 70%
    10:00 +20°C° 0 mm 3 m/s 749 mmHg 65%
    11:00 +21°C° 0 mm 3 m/s 749 mmHg 60%
    12:00 +22°C° 0 mm 3 m/s 749 mmHg 59%
    13:00 +22°C° 0 mm 4 m/s 749 mmHg 58%
    14:00 +23°C° 0 mm 4 m/s 748 mmHg 58%
    15:00 +22°C° 0 mm 3 m/s 748 mmHg 62%
    16:00 +22°C° 0 mm 3 m/s 748 mmHg 66%
    17:00 +23°C° 0 mm 2 m/s 748 mmHg 70%
    18:00 +20°C° 0 mm 2 m/s 748 mmHg 76%
    19:00 +18°C° 0 mm 2 m/s 748 mmHg 82%
    20:00 +16°C° 0 mm 2 m/s 748 mmHg 88%
    21:00 +16°C° 0 mm 2 m/s 748 mmHg 91%
    22:00 +15°C° 0 mm 2 m/s 748 mmHg 93%
    23:00 +15°C° 0 mm 1 m/s 748 mmHg 95%

    Demain, 25 Août, Dimanche

    Heure Température Précipitation Vent Pression Humidité
    00:00 +14°C° 0 mm 1 m/s 748 mmHg 95%
    01:00 +14°C° 0 mm 1 m/s 748 mmHg 95%
    02:00 +14°C° 0 mm 1 m/s 749 mmHg 95%
    03:00 +13°C° 0 mm 1 m/s 749 mmHg 95%
    04:00 +13°C° 0 mm 1 m/s 749 mmHg 95%
    05:00 +12°C° 0 mm 1 m/s 749 mmHg 95%
    06:00 +14°C° 0 mm 1 m/s 749 mmHg 89%
    07:00 +15°C° 0 mm 1 m/s 750 mmHg 83%
    08:00 +17°C° 0 mm 2 m/s 750 mmHg 77%
    09:00 +18°C° 0 mm 2 m/s 750 mmHg 70%
    10:00 +19°C° 0 mm 2 m/s 750 mmHg 63%
    11:00 +21°C° 0 mm 2 m/s 750 mmHg 56%
    12:00 +21°C° 0 mm 2 m/s 750 mmHg 54%
    13:00 +21°C° 0 mm 2 m/s 750 mmHg 52%
    14:00 +23°C° 0 mm 2 m/s 750 mmHg 50%
    15:00 +21°C° 0 mm 2 m/s 750 mmHg 56%
    16:00 +22°C° 0 mm 1 m/s 750 mmHg 61%
    17:00 +22°C° 0 mm 1 m/s 750 mmHg 66%
    18:00 +20°C° 0 mm 1 m/s 750 mmHg 72%
    19:00 +18°C° 0 mm 1 m/s 750 mmHg 78%
    20:00 +14°C° 0 mm 1 m/s 751 mmHg 84%
    21:00 +14°C° 0 mm 1 m/s 751 mmHg 87%
    22:00 +13°C° 0 mm 1 m/s 751 mmHg 90%
    23:00 +13°C° 0 mm 1 m/s 751 mmHg 92%

    Après-demain, 26 Août, Lundi

    Heure Température Précipitation Vent Pression Humidité
    00:00 +13°C° 0 mm 1 m/s 751 mmHg 93%
    01:00 +12°C° 0 mm 1 m/s 751 mmHg 93%
    02:00 +12°C° 0 mm 1 m/s 751 mmHg 94%
    03:00 +12°C° 0 mm 1 m/s 751 mmHg 94%
    04:00 +10°C° 0 mm 0 m/s 751 mmHg 94%
    05:00 +10°C° 0 mm 0 m/s 751 mmHg 94%
    06:00 +12°C° 0 mm 0 m/s 751 mmHg 88%
    07:00 +14°C° 0 mm 0 m/s 751 mmHg 82%
    08:00 +16°C° 0 mm 0 m/s 751 mmHg 76%
    09:00 +18°C° 0 mm 0 m/s 751 mmHg 70%
    10:00 +21°C° 0 mm 1 m/s 751 mmHg 64%
    11:00 +23°C° 0 mm 1 m/s 751 mmHg 58%
    12:00 +23°C° 0 mm 1 m/s 750 mmHg 56%
    13:00 +23°C° 0 mm 1 m/s 750 mmHg 55%
    14:00 +23°C° 0 mm 2 m/s 750 mmHg 54%
    15:00 +23°C° 0 mm 2 m/s 749 mmHg 59%
    16:00 +21°C° 0 mm 2 m/s 749 mmHg 64%
    17:00 +22°C° 0 mm 1 m/s 748 mmHg 69%
    18:00 +20°C° 0 mm 1 m/s 748 mmHg 74%
    19:00 +18°C° 0 mm 1 m/s 748 mmHg 80%
    20:00 +15°C° 0 mm 1 m/s 748 mmHg 86%
    21:00 +15°C° 0 mm 1 m/s 748 mmHg 87%
    22:00 +14°C° 0 mm 1 m/s 748 mmHg 87%
    23:00 +14°C° 0 mm 1 m/s 748 mmHg 88%

    27 Août, Mardi

    Heure Température Précipitation Vent Pression Humidité
    00:00 +14°C° 0 mm 2 m/s 747 mmHg 88%
    01:00 +14°C° 0 mm 2 m/s 747 mmHg 89%
    02:00 +14°C° 0 mm 2 m/s 747 mmHg 89%
    03:00 +14°C° 0 mm 2 m/s 747 mmHg 92%
    04:00 +14°C° 0 mm 2 m/s 746 mmHg 94%
    05:00 +13°C° 0 mm 2 m/s 746 mmHg 97%
    06:00 +15°C° 0 mm 2 m/s 746 mmHg 92%
    07:00 +16°C° 0 mm 3 m/s 746 mmHg 88%
    08:00 +18°C° 0 mm 3 m/s 746 mmHg 84%
    09:00 +19°C° 0 mm 3 m/s 746 mmHg 77%
    10:00 +21°C° 0 mm 4 m/s 746 mmHg 70%
    11:00 +22°C° 0 mm 4 m/s 746 mmHg 63%
    12:00 +22°C° 0 mm 4 m/s 746 mmHg 62%
    13:00 +22°C° 0 mm 5 m/s 746 mmHg 61%
    14:00 +23°C° 0 mm 5 m/s 746 mmHg 59%
    15:00 +22°C° 0 mm 4 m/s 746 mmHg 61%
    16:00 +21°C° 0 mm 4 m/s 746 mmHg 63%
    17:00 +20°C° 0 mm 3 m/s 746 mmHg 64%
    18:00 +18°C° 0 mm 3 m/s 746 mmHg 68%
    19:00 +16°C° 0 mm 3 m/s 746 mmHg 72%
    20:00 +14°C° 0 mm 3 m/s 746 mmHg 77%
    21:00 +13°C° 0 mm 3 m/s 747 mmHg 81%
    22:00 +12°C° 0 mm 3 m/s 747 mmHg 84%
    23:00 +12°C° 0 mm 2 m/s 748 mmHg 88%

    28 Août, Mercredi

    Heure Température Précipitation Vent Pression Humidité
    00:00 +12°C° 0 mm 2 m/s 748 mmHg 91%
    01:00 +10°C° 0 mm 2 m/s 748 mmHg 93%
    02:00 +9°C° 0 mm 2 m/s 748 mmHg 95%
    03:00 +10°C° 0 mm 1 m/s 748 mmHg 95%
    04:00 +9°C° 0 mm 1 m/s 749 mmHg 95%
    05:00 +9°C° 0 mm 1 m/s 749 mmHg 95%
    06:00 +10°C° 0 mm 1 m/s 749 mmHg 86%
    07:00 +12°C° 0 mm 2 m/s 749 mmHg 77%
    08:00 +13°C° 0 mm 2 m/s 750 mmHg 68%
    09:00 +15°C° 0 mm 2 m/s 750 mmHg 61%
    10:00 +16°C° 0 mm 3 m/s 750 mmHg 55%
    11:00 +17°C° 0 mm 3 m/s 750 mmHg 48%
    12:00 +17°C° 0 mm 3 m/s 750 mmHg 47%
    13:00 +18°C° 0 mm 3 m/s 749 mmHg 45%
    14:00 +18°C° 0 mm 3 m/s 749 mmHg 44%
    15:00 +18°C° 0 mm 3 m/s 749 mmHg 49%
    16:00 +18°C° 0 mm 2 m/s 749 mmHg 54%
    17:00 +17°C° 0 mm 2 m/s 749 mmHg 59%
    18:00 +15°C° 0 mm 2 m/s 749 mmHg 63%
    19:00 +13°C° 0 mm 1 m/s 749 mmHg 67%
    20:00 +11°C° 0 mm 1 m/s 749 mmHg 71%
    21:00 +10°C° 0 mm 1 m/s 749 mmHg 72%
    22:00 +10°C° 0 mm 1 m/s 749 mmHg 73%
    23:00 +9°C° 0 mm 1 m/s 750 mmHg 73%

    29 Août, Jeudi

    Heure Température Précipitation Vent Pression Humidité
    00:00 +8°C° 0 mm 1 m/s 750 mmHg 74%
    01:00 +8°C° 0 mm 1 m/s 750 mmHg 74%
    02:00 +7°C° 0 mm 1 m/s 750 mmHg 75%
    03:00 +7°C° 0 mm 1 m/s 750 mmHg 75%
    04:00 +6°C° 0 mm 0 m/s 750 mmHg 75%
    05:00 +6°C° 0 mm 0 m/s 750 mmHg 76%
    06:00 +8°C° 0 mm 0 m/s 750 mmHg 69%
    07:00 +10°C° 0 mm 0 m/s 750 mmHg 63%
    08:00 +13°C° 0 mm 1 m/s 750 mmHg 57%
    09:00 +15°C° 0 mm 1 m/s 750 mmHg 53%
    10:00 +16°C° 0 mm 1 m/s 750 mmHg 49%
    11:00 +19°C° 0 mm 1 m/s 750 mmHg 45%
    12:00 +20°C° 0 mm 1 m/s 749 mmHg 46%
    13:00 +20°C° 0 mm 1 m/s 749 mmHg 48%
    14:00 +21°C° 0 mm 1 m/s 749 mmHg 49%
    15:00 +20°C° 0 mm 1 m/s 749 mmHg 56%
    16:00 +20°C° 0 mm 1 m/s 749 mmHg 62%
    17:00 +19°C° 0 mm 1 m/s 749 mmHg 68%
    18:00 +18°C° 0 mm 1 m/s 749 mmHg 74%
    19:00 +15°C° 0 mm 1 m/s 748 mmHg 79%
    20:00 +13°C° 0 mm 1 m/s 748 mmHg 85%
    21:00 +13°C° 0 mm 1 m/s 749 mmHg 87%
    22:00 +13°C° 0 mm 1 m/s 749 mmHg 88%
    23:00 +12°C° 0 mm 1 m/s 749 mmHg 90%
    Voir plus